Burlington, CO

8:13 PM MST on December 08, 2019 (GMT -0700)
Kit Carson County

Weather History for KITR - November, 2019

Change the Weather History Date:

Thursday, November 21, 2019

  Actual Average Record
Temperature  
Mean Temperature 32 °F 36 °F  
Max Temperature 34 °F 50 °F 76 °F (1974)
Min Temperature 29 °F 22 °F 7 °F (1929)
Degree Days  
Heating Degree Days 33    
Moisture  
Dew Point 25 °F    
Average Humidity 78    
Maximum Humidity 86    
Minimum Humidity 66    
Precipitation  
Precipitation 0.00 in 0.01 in 0.30 in (1942)
Month to date precipitation 0.03 0.48  
Year to date precipitation 14.39 16.92  
Sea Level Pressure  
Sea Level Pressure 30.13 in    
Wind  
Wind Speed 15 mph (NNE)    
Max Wind Speed 23 mph    
Max Gust Speed 32 mph    
Visibility 10 miles    
Events      
T = Trace of Precipitation, MM = Missing Value Source: NWS Daily Summary

Daily Weather History Graph

Daily Weather History Graph

Search for Another Location

Airport or City:

Astronomy

Nov. 21, 2019 Rise Set
Actual Time 6:39 AM MST 4:30 PM MST
Civil Twilight 6:10 AM MST 4:59 PM MST
Nautical Twilight 5:37 AM MST 5:32 PM MST
Astronomical Twilight 5:05 AM MST 6:04 PM MST
Moon 12:40 AM MST (11/21) 1:58 PM MST (11/21)
Length of Visible Light 10h 49m
Length of Day
9h 51m
Waning Crescent, 29% of the Moon is Illuminated
Nov 21
Waning Crescent
Nov 26
New
Dec 3
First Quarter
Dec 11
Full
Dec 18
Last Quarter

Hourly Weather History & Observations

Time (MST) Temp. Windchill Dew Point Humidity Pressure Visibility Wind Dir Wind Speed Gust Speed Precip Events Conditions
12:11 AM 33.1 °F 21.9 °F 28.9 °F 85% 29.96 in 10.0 mi North 18.4 mph 28.8 mph N/A   Overcast
12:23 AM 33.1 °F 20.6 °F 28.9 °F 85% 29.95 in 10.0 mi North 23.0 mph 32.2 mph N/A   Overcast
12:53 AM 33.1 °F 21.9 °F 28.9 °F 85% 29.98 in 10.0 mi North 18.4 mph 27.6 mph N/A   Overcast
1:53 AM 32.0 °F 20.1 °F 28.0 °F 85% 30.02 in 10.0 mi NNW 19.6 mph 27.6 mph N/A   Overcast
2:53 AM 32.0 °F 20.8 °F 28.0 °F 85% 30.04 in 10.0 mi North 17.3 mph - N/A   Overcast
3:53 AM 32.0 °F 22.5 °F 28.0 °F 85% 30.03 in 10.0 mi North 12.7 mph - N/A   Overcast
4:48 AM 30.2 °F 18.1 °F 26.6 °F 86% 30.05 in 10.0 mi North 18.4 mph 29.9 mph N/A   Overcast
5:53 AM 30.0 °F 19.1 °F 26.1 °F 85% 30.11 in 10.0 mi North 15.0 mph 24.2 mph N/A   Overcast
6:09 AM 30.0 °F 19.5 °F 26.1 °F 85% 30.08 in 10.0 mi North 13.8 mph 21.9 mph N/A   Overcast
6:53 AM 30.0 °F 21.1 °F 26.1 °F 85% 30.15 in 10.0 mi North 10.4 mph - N/A   Overcast
7:06 AM 30.0 °F 19.5 °F 26.1 °F 85% 30.12 in 10.0 mi North 13.8 mph - N/A   Overcast
7:53 AM 30.0 °F 19.1 °F 26.1 °F 85% 30.18 in 10.0 mi North 15.0 mph - N/A   Overcast
8:53 AM 30.0 °F 19.5 °F 26.1 °F 85% 30.18 in 10.0 mi NNE 13.8 mph - N/A   Overcast
9:19 AM 30.0 °F 19.1 °F 25.0 °F 82% 30.13 in 10.0 mi North 15.0 mph - N/A   Overcast
9:37 AM 30.0 °F 20.5 °F 26.1 °F 85% 30.15 in 10.0 mi NNE 11.5 mph - N/A   Overcast
9:53 AM 30.0 °F 20.5 °F 26.1 °F 85% 30.22 in 10.0 mi NNE 11.5 mph - N/A   Overcast
10:39 AM 30.9 °F 22.2 °F 25.0 °F 79% 30.16 in 10.0 mi NNE 10.4 mph - N/A   Overcast
10:53 AM 32.0 °F 23.0 °F 25.0 °F 75% 30.18 in 10.0 mi NNE 11.5 mph - N/A   Overcast
11:06 AM 32.0 °F 22.5 °F 25.0 °F 75% 30.13 in 10.0 mi NNE 12.7 mph - N/A   Overcast
11:53 AM 33.1 °F 24.4 °F 26.1 °F 75% 30.15 in 10.0 mi NNE 11.5 mph - N/A   Overcast
12:53 PM 33.1 °F 23.4 °F 25.0 °F 72% 30.15 in 10.0 mi NNE 13.8 mph - N/A   Overcast
1:10 PM 33.1 °F 23.0 °F 25.0 °F 72% 30.10 in 10.0 mi NNE 15.0 mph - N/A   Overcast
1:53 PM 34.0 °F 25.0 °F 25.0 °F 70% 30.15 in 10.0 mi North 12.7 mph - N/A   Overcast
2:18 PM 33.1 °F 23.0 °F 23.0 °F 66% 30.10 in 10.0 mi North 15.0 mph - N/A   Overcast
2:53 PM 34.0 °F 24.6 °F 24.1 °F 67% 30.14 in 10.0 mi NNE 13.8 mph 23.0 mph N/A   Overcast
3:20 PM 33.1 °F 23.9 °F 24.1 °F 70% 30.11 in 10.0 mi North 12.7 mph - N/A   Overcast
3:53 PM 33.1 °F 23.9 °F 23.0 °F 66% 30.17 in 10.0 mi NNE 12.7 mph - N/A   Overcast
4:53 PM 32.0 °F 22.5 °F 23.0 °F 69% 30.19 in 10.0 mi NNE 12.7 mph - N/A   Overcast
5:53 PM 30.9 °F 22.8 °F 23.0 °F 72% 30.19 in 10.0 mi NNE 9.2 mph - N/A   Overcast
6:53 PM 30.9 °F 23.5 °F 23.0 °F 72% 30.21 in 10.0 mi NNE 8.1 mph - N/A   Overcast
7:53 PM 30.9 °F 23.5 °F 23.0 °F 72% 30.22 in 10.0 mi NNE 8.1 mph - N/A   Overcast
8:53 PM 30.9 °F 23.5 °F 23.0 °F 72% 30.23 in 10.0 mi NNE 8.1 mph - N/A   Overcast
9:53 PM 30.9 °F 23.5 °F 23.0 °F 72% 30.22 in 10.0 mi NE 8.1 mph - N/A   Overcast
10:53 PM 30.9 °F 24.3 °F 23.0 °F 72% 30.22 in 10.0 mi NNE 6.9 mph - N/A   Overcast
11:53 PM 30.0 °F 24.1 °F 23.0 °F 75% 30.24 in 10.0 mi ENE 5.8 mph - N/A   Overcast